User: anonymous   Login
Location: Joplin
(37.0842°N, 94.5131°W)
Time: 01:50:36
(UTC-05:00)
Language:

STRAND 1 - Orbit

View from above orbital plane
View from above orbital plane
View from above satellite
View from above satellite

Ground track
Ground track

The orbit data is extracted from the following two-line orbital elements,

1 39090U 13009E   19142.45497526  .00000000  00000-0  15279-4 0  9991
2 39090  98.4910 348.8675 0009520  17.4703 342.6808 14.35083670326484
Epoch (UTC): 22 May 2019 10:55:09
Eccentricity: 0.0009520
inclination: 98.4910°
perigee height: 768 km
apogee height: 781 km
right ascension of ascending node: 348.8675°
argument of perigee: 17.4703°
revolutions per day: 14.35083670
mean anomaly at epoch: 342.6808°
orbit number at epoch: 32648

The dashed part of the orbit path shows where the satellite is in the earth's shadow,  

DLR